Weather History for Limnos, Greece

Change the Weather History Date:

Wednesday, October 26, 2011

  Actual Average Record
Temperature  
Mean Temperature 58 °F -  
Max Temperature 61 °F 61 °F 75 °F (2010)
Min Temperature 55 °F 49 °F 39 °F (2000)
Degree Days  
Heating Degree Days 7    
Growing Degree Days 8 (Base 50)    
Moisture  
Dew Point 49 °F    
Average Humidity 72    
Maximum Humidity 88    
Minimum Humidity 52    
Precipitation  
Precipitation 0.00 in 0.09 in - ()
Sea Level Pressure  
Sea Level Pressure 30.17 in    
Wind  
Wind Speed 17 mph ()    
Max Wind Speed 23 mph    
Max Gust Speed 34 mph    
Visibility 6.2 miles    
Events      
Averages and records for this station are not official NWS values.
T = Trace of Precipitation, MM = Missing Value Source: Averaged Metar Reports

Daily Weather History Graph

Daily Weather History Graph

Search for Another Location

Airport:

Trip Planner

Search our weather history database for the weather conditions in past years. The results will help you decide how hot, cold, wet, or windy it might be!

Date:

Astronomy

Oct. 26, 2011 Rise Set
Actual Time 7:40 AM EEST 6:24 PM EEST
Civil Twilight 7:12 AM EEST 6:52 PM EEST
Nautical Twilight 6:41 AM EEST 7:24 PM EEST
Astronomical Twilight 6:09 AM EEST 7:55 PM EEST
Moon 7:04 AM EEST (10/26) 5:53 PM EEST (10/26)
Length of Visible Light 11h 39m
Length of Day
10h 44m
Waning Crescent, 0% of the Moon is Illuminated
Oct 26
Waning Crescent
Oct 26
New
Nov 2
First Quarter
Nov 10
Full
Nov 18
Last Quarter

Hourly Weather History & Observations

Time (EEST) Temp. Dew Point Humidity Pressure Visibility Wind Dir Wind Speed Gust Speed Precip Events Conditions
12:50 AM 57.2 °F 50.0 °F 77% 30.15 in 6.2 mi NE 16.1 mph - N/A   Partly Cloudy
1:20 AM 57.2 °F 50.0 °F 77% 30.15 in 6.2 mi NE 16.1 mph - N/A   Partly Cloudy
1:50 AM 57.2 °F 50.0 °F 77% 30.15 in 6.2 mi NE 16.1 mph - N/A   Partly Cloudy
2:50 AM 57.2 °F 50.0 °F 77% 30.15 in 6.2 mi NE 17.3 mph - N/A   Mostly Cloudy
3:00 AM 57 °F 50 °F 69% 30.18 in 6 mi NE 17.3 mph - -   Partly Cloudy
3:50 AM 57.2 °F 50.0 °F 77% 30.15 in 6.2 mi NE 16.1 mph - N/A   Mostly Cloudy
4:20 AM 57.2 °F 50.0 °F 77% 30.15 in 6.2 mi NE 16.1 mph - N/A   Mostly Cloudy
4:50 AM 55.4 °F 51.8 °F 88% 30.15 in 6.2 mi NE 15.0 mph - N/A   Mostly Cloudy
5:20 AM 55.4 °F 51.8 °F 88% 30.15 in 6.2 mi NE 15.0 mph - N/A   Mostly Cloudy
5:50 AM 55.4 °F 50.0 °F 82% 30.15 in 6.2 mi NE 16.1 mph - N/A   Partly Cloudy
6:20 AM 55.4 °F 50.0 °F 82% 30.15 in 6.2 mi NE 16.1 mph - N/A   Partly Cloudy
6:50 AM 55.4 °F 48.2 °F 77% 30.15 in 6.2 mi NE 13.8 mph - N/A   Partly Cloudy
7:20 AM 55.4 °F 48.2 °F 77% 30.15 in 6.2 mi NE 16.1 mph - N/A   Partly Cloudy
7:50 AM 55.4 °F 48.2 °F 77% 30.15 in 6.2 mi NE 16.1 mph - N/A   Partly Cloudy
8:50 AM 57.2 °F 50.0 °F 77% 30.15 in 6.2 mi ENE 13.8 mph - N/A   Scattered Clouds
9:00 AM 58 °F 49 °F 65% 30.18 in 6 mi ENE 13.8 mph - -   Partly Cloudy
9:20 AM 57.2 °F 50.0 °F 77% 30.18 in 6.2 mi NE 20.7 mph - N/A   Scattered Clouds
9:50 AM 59.0 °F 50.0 °F 72% 30.18 in 6.2 mi NE 20.7 mph - N/A   Scattered Clouds
10:20 AM 59.0 °F 50.0 °F 72% 30.18 in 6.2 mi NE 18.4 mph - N/A   Scattered Clouds
10:50 AM 60.8 °F 50.0 °F 68% 30.18 in 6.2 mi NE 19.6 mph - N/A   Scattered Clouds
11:20 AM 60.8 °F 50.0 °F 68% 30.18 in 6.2 mi NE 21.9 mph - N/A   Scattered Clouds
11:50 AM 60.8 °F 50.0 °F 68% 30.18 in 6.2 mi NE 21.9 mph - N/A   Scattered Clouds
12:20 PM 60.8 °F 50.0 °F 68% 30.18 in 6.2 mi NE 21.9 mph - N/A   Mostly Cloudy
12:50 PM 60.8 °F 50.0 °F 68% 30.18 in 6.2 mi NE 21.9 mph - N/A   Mostly Cloudy
1:20 PM 60.8 °F 50.0 °F 68% 30.18 in 6.2 mi NE 20.7 mph - N/A   Mostly Cloudy
1:50 PM 60.8 °F 50.0 °F 68% 30.18 in 6.2 mi NE 19.6 mph 31.1 mph N/A   Scattered Clouds
2:20 PM 60.8 °F 50.0 °F 68% 30.18 in 6.2 mi NE 21.9 mph 33.4 mph N/A   Scattered Clouds
2:50 PM 60.8 °F 50.0 °F 68% 30.18 in 6.2 mi NE 20.7 mph 32.2 mph N/A   Scattered Clouds
3:00 PM 61 °F 50 °F 57% 30.18 in 6 mi NE 20.7 mph - -   Partly Cloudy
3:20 PM 60.8 °F 50.0 °F 68% 30.18 in 6.2 mi NE 23.0 mph 34.5 mph N/A   Scattered Clouds
3:50 PM 60.8 °F 50.0 °F 68% 30.18 in 6.2 mi NE 23.0 mph 34.5 mph N/A   Mostly Cloudy
4:50 PM 59.0 °F 50.0 °F 72% 30.18 in 6.2 mi NE 19.6 mph 31.1 mph N/A   Scattered Clouds
5:20 PM 59.0 °F 50.0 °F 72% 30.18 in 6.2 mi NE 21.9 mph 33.4 mph N/A   Scattered Clouds
5:50 PM 59.0 °F 48.2 °F 67% 30.18 in 6.2 mi NE 20.7 mph 32.2 mph N/A   Scattered Clouds
6:20 PM 59.0 °F 48.2 °F 67% 30.18 in 6.2 mi NE 21.9 mph 34.5 mph N/A   Scattered Clouds
7:50 PM 57.2 °F 50.0 °F 77% 30.18 in 6.2 mi NE 23.0 mph 34.5 mph N/A   Scattered Clouds
8:20 PM 57.2 °F 50.0 °F 77% 30.21 in 6.2 mi NE 23.0 mph 34.5 mph N/A   Scattered Clouds
8:50 PM 57.2 °F 44.6 °F 63% 30.18 in 6.2 mi NE 23.0 mph 34.5 mph N/A   Mostly Cloudy
9:00 PM 58 °F 45 °F 52% 30.20 in 6 mi NE 23.0 mph - -   Partly Cloudy
9:20 PM 57.2 °F 44.6 °F 63% 30.18 in 6.2 mi NE 23.0 mph 34.5 mph N/A   Mostly Cloudy
10:20 PM 55.4 °F 48.2 °F 77% 30.21 in 6.2 mi NE 21.9 mph 33.4 mph N/A   Mostly Cloudy
10:50 PM 55.4 °F 48.2 °F 77% 30.21 in 6.2 mi NE 21.9 mph 33.4 mph N/A   Mostly Cloudy